This demonstration page uses our WeatherBlox Daily Observations layout. Learn more.

Left ArrowRight Arrow

53.62937, 11.41316

Hourly Observations for April 28, 2022

Temp ( °F °C ) Dew Point ( °F °C ) Humidity (%) Winds ( mph kmh ) Pressure ( in mb ) Visibility ( mi km ) Precip ( " mm )
12:20 am 00:20 Mostly Clear 43 6 37 3 81 81 W 3 6 30.36 1028 30 48 N/A
12:50 am 00:50 Mostly Clear 41 5 36 2 81 81 WSW 3 6 30.36 1028 30 48 N/A
1:20 am 01:20 Mostly Clear 41 5 36 2 81 81 W 3 6 30.36 1028 30 48 N/A
1:50 am 01:50 Mostly Clear 41 5 36 2 81 81 WSW 3 6 30.36 1028 30 48 N/A
2:20 am 02:20 Mostly Clear 39 4 36 2 87 87 WSW 3 6 30.36 1028 30 48 N/A
2:50 am 02:50 Mostly Clear 39 4 36 2 87 87 VRB 2 4 30.36 1028 30 48 N/A
3:20 am 03:20 Mostly Clear 37 3 36 2 93 93 VRB 1 2 30.36 1028 30 48 N/A
3:50 am 03:50 Mostly Clear 37 3 34 1 87 87 Calm 30.36 1028 30 48 N/A
4:20 am 04:20 Mostly Clear 36 2 34 1 93 93 VRB 1 2 30.36 1028 30 48 N/A
4:50 am 04:50 Mostly Clear 36 2 34 1 93 93 VRB 2 4 30.36 1028 30 48 N/A
5:20 am 05:20 Mostly Clear 36 2 34 1 93 93 WSW 5 7 30.36 1028 30 48 N/A
5:50 am 05:50 Mostly Sunny 36 2 34 1 93 93 VRB 2 4 30.36 1028 30 48 N/A
6:20 am 06:20 Mostly Sunny 36 2 34 1 93 93 WSW 2 4 30.36 1028 30 48 N/A
6:50 am 06:50 Mostly Sunny 37 3 36 2 93 93 WSW 3 6 30.36 1028 30 48 N/A
7:20 am 07:20 Mostly Sunny 39 4 36 2 87 87 SW 3 6 30.39 1029 30 48 N/A
7:50 am 07:50 Mostly Sunny 41 5 37 3 87 87 WSW 5 7 30.39 1029 7 11 N/A
8:20 am 08:20 Mostly Sunny 45 7 37 3 76 76 W 5 7 30.39 1029 7 11 N/A
8:50 am 08:50 Mostly Sunny 46 8 39 4 76 76 WNW 6 9 30.39 1029 7 11 N/A
9:20 am 09:20 Mostly Sunny 48 9 39 4 71 71 WNW 8 13 30.39 1029 7 11 N/A
9:50 am 09:50 Mostly Sunny 50 10 39 4 67 67 WNW 6 9 30.39 1029 7 11 N/A
10:20 am 10:20 Mostly Sunny 52 11 39 4 62 62 W 5 7 30.39 1029 7 11 N/A
10:50 am 10:50 Mostly Sunny 54 12 39 4 58 58 VRB 5 7 30.39 1029 7 11 N/A
11:20 am 11:20 Mostly Sunny 54 12 37 3 54 54 WNW 5 7 30.39 1029 7 11 N/A
11:50 am 11:50 Mostly Sunny 55 13 39 4 55 55 VRB 3 6 30.39 1029 7 11 N/A
12:20 pm 12:20 Mostly Sunny 57 14 39 4 51 51 VRB 5 7 30.39 1029 7 11 N/A
12:50 pm 12:50 Mostly Sunny 57 14 39 4 51 51 VRB 6 9 30.39 1029 30 48 N/A
1:20 pm 13:20 Mostly Sunny 59 15 39 4 48 48 VRB 5 7 30.39 1029 30 48 N/A
1:50 pm 13:50 Mostly Sunny 57 14 39 4 51 51 N 6 9 30.39 1029 30 48 N/A
2:20 pm 14:20 Mostly Sunny 61 16 41 5 48 48 W 7 11 30.39 1029 30 48 N/A
2:50 pm 14:50 Mostly Sunny 61 16 37 3 42 42 VRB 3 6 30.39 1029 7 11 N/A
3:20 pm 15:20 Mostly Sunny 61 16 39 4 45 45 W 6 9 30.39 1029 7 11 N/A
3:50 pm 15:50 Mostly Sunny 59 15 39 4 48 48 W 7 11 30.36 1028 7 11 N/A
4:20 pm 16:20 Mostly Sunny 63 17 39 4 42 42 WNW 8 13 30.36 1028 7 11 N/A
4:50 pm 16:50 Mostly Sunny 61 16 39 4 45 45 NNW 8 13 30.36 1028 7 11 N/A
5:20 pm 17:20 Mostly Sunny 63 17 37 3 39 39 WNW 10 17 30.36 1028 7 11 N/A
5:50 pm 17:50 Mostly Sunny 63 17 36 2 37 37 WNW 9 15 30.36 1028 7 11 N/A
6:20 pm 18:20 Mostly Sunny 61 16 32 0 34 34 WNW 10 17 30.36 1028 7 11 N/A
6:50 pm 18:50 Mostly Sunny 59 15 27 -3 29 29 NW 10 17 30.36 1028 7 11 N/A
7:20 pm 19:20 Mostly Sunny 59 15 25 -4 27 27 WNW 12 19 30.36 1028 7 11 N/A
7:50 pm 19:50 Mostly Sunny 57 14 28 -2 33 33 WNW 10 17 30.39 1029 7 11 N/A
8:20 pm 20:20 Mostly Sunny 54 12 28 -2 38 38 WNW 7 11 30.39 1029 7 11 N/A
8:50 pm 20:50 Mostly Clear 52 11 30 -1 44 44 W 5 7 30.39 1029 7 11 N/A
9:20 pm 21:20 Mostly Clear 50 10 32 0 50 50 W 5 7 30.39 1029 30 48 N/A
9:50 pm 21:50 Mostly Clear 48 9 34 1 58 58 WNW 5 7 30.39 1029 30 48 N/A
10:20 pm 22:20 Mostly Clear 48 9 36 2 62 62 W 5 7 30.42 1030 30 48 N/A
10:50 pm 22:50 Mostly Clear 46 8 36 2 66 66 W 5 7 30.42 1030 30 48 N/A
11:20 pm 23:20 Mostly Clear 46 8 37 3 71 71 W 5 7 30.42 1030 30 48 N/A
11:50 pm 23:50 Mostly Clear 43 6 37 3 81 81 VRB 2 4 30.42 1030 30 48 N/A

Powered by AerisWeather